Terminal Aerodrome Forecast
Issued by NWS

Home | Current Version | Previous Version | Text Only | Print | Product List | Glossary On
Versions: 1 2 3 4 5 6 7 8 9 10 11 12 13 14
000
FTUS42 TJSJ 192300 RRA
TAFJSJ
TAF
TJSJ 192342Z 2000/2024 08006KT P6SM VCSH SCT030 SCT070
     FM201300 08012KT P6SM VCSH SCT025
     FM202200 08006KT P6SM VCSH SCT030 SCT070=

USA.gov is the U.S. government's official web portal to all federal, state and local government web resources and services.